Weather History for Meeker, CO

Change the Weather History Date:

Friday, February 8, 2013

  Actual Average Record
Temperature  
Mean Temperature 25 °F 23 °F  
Max Temperature 44 °F 36 °F 52 °F (2000)
Min Temperature 5 °F 10 °F -4 °F (2001)
Degree Days  
Heating Degree Days 40 42  
Month to date heating degree days 328 343  
Since 1 July heating degree days 5066 5024  
Cooling Degree Days 0 0  
Month to date cooling degree days 0 0  
Year to date cooling degree days 0 0  
Moisture  
Dew Point 21 °F    
Average Humidity 63    
Maximum Humidity 92    
Minimum Humidity 34    
Precipitation  
Precipitation 0.01 in 0.03 in 0.09 in (2012)
Month to date precipitation 0.02 0.24  
Year to date precipitation 0.71 1.11  
Sea Level Pressure  
Sea Level Pressure 29.79 in    
Wind  
Wind Speed 5 mph (NE)    
Max Wind Speed 24 mph    
Max Gust Speed 30 mph    
Visibility 6 miles    
Events Fog , Snow    
T = Trace of Precipitation, MM = Missing Value Source: NWS Daily Summary

Daily Weather History Graph

Daily Weather History Graph

Search for Another Location

Airport:

Trip Planner

Search our weather history database for the weather conditions in past years. The results will help you decide how hot, cold, wet, or windy it might be!

Date:

Astronomy

Feb. 08, 2013 Rise Set
Actual Time 7:12 AM MST 5:39 PM MST
Civil Twilight 6:44 AM MST 6:07 PM MST
Nautical Twilight 6:12 AM MST 6:39 PM MST
Astronomical Twilight 5:40 AM MST 7:11 PM MST
Moon 5:43 AM MST (2/8) 4:16 PM MST (2/8)
Length of Visible Light 11h 23m
Length of Day
10h 26m
Waning Crescent, 3% of the Moon is Illuminated
Feb 8
Waning Crescent
Feb 10
New
Feb 17
First Quarter
Feb 25
Full
Mar 4
Last Quarter

Hourly Weather History & Observations

Time (MST) Temp. Windchill Dew Point Humidity Pressure Visibility Wind Dir Wind Speed Gust Speed Precip Events Conditions
12:53 AM 7.0 °F 0.1 °F 1.9 °F 80% 30.17 in 10.0 mi NE 3.5 mph - N/A   Clear
1:53 AM 9.0 °F 2.4 °F 3.0 °F 77% 30.14 in 10.0 mi SE 3.5 mph - N/A   Clear
2:53 AM 8.1 °F 1.4 °F 1.9 °F 76% 30.12 in 10.0 mi NNE 3.5 mph - N/A   Clear
3:53 AM 12.0 °F - 5.0 °F 73% 30.09 in 10.0 mi Calm Calm - N/A   Overcast
4:53 AM 18.0 °F 9.8 °F 9.0 °F 68% 30.05 in 10.0 mi East 5.8 mph - N/A   Overcast
5:53 AM 18.0 °F - 8.1 °F 65% 30.07 in 10.0 mi Calm Calm - N/A   Mostly Cloudy
6:53 AM 19.0 °F - 10.0 °F 68% 30.06 in 10.0 mi Calm Calm - N/A   Overcast
7:53 AM 17.1 °F - 10.0 °F 74% 30.04 in 10.0 mi Calm Calm - N/A   Clear
8:53 AM 21.9 °F - 12.0 °F 66% 30.02 in 10.0 mi Calm Calm - N/A   Clear
9:53 AM 24.1 °F - 12.0 °F 60% 29.99 in 10.0 mi Calm Calm - N/A   Overcast
10:53 AM 30.0 °F 24.1 °F 15.1 °F 54% 29.95 in 10.0 mi NE 5.8 mph - N/A   Clear
11:53 AM 39.0 °F 36.8 °F 14.0 °F 36% 29.84 in 10.0 mi East 3.5 mph - N/A   Mostly Cloudy
12:53 PM 42.1 °F 35.7 °F 17.1 °F 37% 29.80 in 10.0 mi SSW 11.5 mph 18.4 mph N/A   Overcast
1:53 PM 42.1 °F 34.2 °F 21.0 °F 43% 29.77 in 10.0 mi SSW 16.1 mph 24.2 mph N/A   Mostly Cloudy
2:53 PM 39.0 °F 29.9 °F 24.1 °F 55% 29.79 in 10.0 mi WSW 17.3 mph 25.3 mph N/A   Overcast
3:53 PM 37.9 °F 33.5 °F 26.1 °F 62% 29.76 in 10.0 mi South 5.8 mph - N/A   Overcast
4:53 PM 39.0 °F 32.8 °F 25.0 °F 57% 29.69 in 10.0 mi ENE 9.2 mph - N/A   Overcast
5:53 PM 39.0 °F - 23.0 °F 53% 29.68 in 10.0 mi Calm Calm - N/A   Mostly Cloudy
6:53 PM 34.0 °F 29.8 °F 26.1 °F 73% 29.69 in 10.0 mi SSW 4.6 mph - N/A   Overcast
7:53 PM 34.0 °F 28.8 °F 27.0 °F 75% 29.70 in 9.0 mi NW 5.8 mph - 0.00 in Snow Light Snow
8:27 PM 33.8 °F 27.7 °F 28.4 °F 81% 29.66 in 2.5 mi East 6.9 mph - 0.00 in Snow Light Snow
8:29 PM 32.0 °F 28.7 °F 28.4 °F 87% 29.66 in 3.0 mi East 3.5 mph - 0.00 in Snow Light Snow
8:50 PM 32.0 °F 28.7 °F 28.4 °F 87% 29.68 in 2.0 mi WNW 3.5 mph - 0.00 in Snow Light Snow
8:53 PM 32.0 °F 28.7 °F 28.9 °F 88% 29.73 in 1.0 mi NW 3.5 mph - 0.01 in Snow Light Snow
9:01 PM 30.2 °F 26.7 °F 28.4 °F 93% 29.67 in 0.8 mi North 3.5 mph - 0.00 in Snow Light Snow
9:03 PM 30.2 °F 26.7 °F 28.4 °F 93% 29.67 in 1.0 mi North 3.5 mph - 0.00 in Snow Light Snow
9:08 PM 30.2 °F 25.4 °F 28.4 °F 93% 29.67 in 2.0 mi NE 4.6 mph - 0.00 in Snow Light Snow
9:11 PM 30.2 °F 25.4 °F 28.4 °F 93% 29.67 in 3.0 mi NE 4.6 mph - 0.00 in Snow Light Snow
9:21 PM 30.2 °F 23.4 °F 28.4 °F 93% 29.67 in 8.0 mi ENE 6.9 mph - 0.00 in   Overcast
9:53 PM 28.9 °F 23.9 °F 28.0 °F 96% 29.73 in 10.0 mi West 4.6 mph - 0.00 in   Overcast
10:07 PM 28.4 °F 22.2 °F 28.4 °F 100% 29.69 in 8.0 mi SW 5.8 mph - N/A   Overcast
10:34 PM 28.4 °F 24.6 °F 26.6 °F 93% 29.68 in 5.0 mi NE 3.5 mph - 0.00 in   Overcast
10:53 PM 28.0 °F 21.7 °F 26.1 °F 92% 29.70 in 4.0 mi Variable 5.8 mph - 0.00 in   Mostly Cloudy
11:01 PM 28.4 °F 22.2 °F 26.6 °F 93% 29.67 in 1.5 mi North 5.8 mph - N/A   Mostly Cloudy
11:03 PM 26.6 °F 22.6 °F 26.6 °F 100% 29.67 in 1.0 mi North 3.5 mph - N/A   Mostly Cloudy
11:10 PM 28.4 °F 24.6 °F 28.4 °F 100% 29.67 in 0.8 mi NNW 3.5 mph - N/A   Mostly Cloudy
11:13 PM 30.2 °F - 28.4 °F 93% 29.67 in 1.2 mi Calm Calm - N/A   Mostly Cloudy
11:15 PM 30.2 °F - 28.4 °F 93% 29.67 in 3.0 mi Calm Calm - N/A   Mostly Cloudy
11:26 PM 28.4 °F - 28.4 °F 100% 29.67 in 5.0 mi Calm Calm - N/A   Overcast
11:47 PM 28.4 °F 24.6 °F 26.6 °F 93% 29.68 in 1.2 mi East 3.5 mph - N/A   Overcast
11:49 PM 28.4 °F - 26.6 °F 93% 29.68 in 0.8 mi Calm Calm - N/A   Overcast
11:53 PM 28.0 °F - 26.1 °F 92% 29.68 in 0.5 mi Calm Calm - N/A Fog Light Freezing Fog